Tracking 19817 objects as of 17-Aug-2019
HD Live streaming from Space Station
objects crossing your sky now

ARIANE 5 R/B

Track ARIANE 5 R/B now!


NORAD ID: 36746
Int'l Code: 2010-032C
Perigee: 284.3 km
Apogee: 33,640.5 km
Inclination: 1.7 °
Period: 591.2 minutes
Semi major axis: 23333 km
RCS: 22.3476 m2 (large)
Launch date: June 26, 2010
Source: France (FR)
Launch site: FRENCH GUIANA (FRGUI)

Note: This is a ROCKET BODY
aabbcc
Your satellite tracking list
Your tracking list is empty




NASA's NSSDC Master Catalog

Two Line Element Set (TLE):
1 36746U 10032C   19228.58462078  .00000255  00000-0  11869-3 0  9994
2 36746   1.7159  62.6263 7147737 187.4455 150.2805  2.43576898 79140
Source of the keplerian elements: AFSPC